Weather History for KRIV - February, 2013

Change the Weather History Date:

Monday, February 18, 2013

  Actual Average Record
Temperature  
Mean Temperature 52 °F -  
Max Temperature 61 °F 62 °F 79 °F (2015)
Min Temperature 42 °F 41 °F 30 °F (2012)
Degree Days  
Heating Degree Days 14    
Growing Degree Days 2 (Base 50)    
Moisture  
Dew Point 46 °F    
Average Humidity 95    
Maximum Humidity 100    
Minimum Humidity 59    
Precipitation  
Precipitation 0.00 in - - ()
Sea Level Pressure  
Sea Level Pressure 30.01 in    
Wind  
Wind Speed 4 mph (SE)    
Max Wind Speed 9 mph    
Max Gust Speed -    
Visibility 4 miles    
Events Fog    
Averages and records for this station are not official NWS values.
T = Trace of Precipitation, MM = Missing Value Source: NWS Daily Summary

Daily Weather History Graph

Daily Weather History Graph

Search for Another Location

Airport or City:

Trip Planner

Search our weather history database for the weather conditions in past years. The results will help you decide how hot, cold, wet, or windy it might be!

Date:

Astronomy

Feb. 18, 2013 Rise Set
Actual Time 6:30 AM PST 5:36 PM PST
Civil Twilight 6:04 AM PST 6:01 PM PST
Nautical Twilight 5:35 AM PST 6:30 PM PST
Astronomical Twilight 5:06 AM PST 6:59 PM PST
Moon 11:33 AM PST (2/18) 1:06 AM PST (2/18)
Length of Visible Light 11h 57m
Length of Day
11h 06m
First Quarter, 59% of the Moon is Illuminated
Feb 18
First Quarter
Feb 25
Full
Mar 4
Last Quarter
Mar 11
New
Mar 19
First Quarter

Hourly Weather History & Observations

Time (PST) Temp. Windchill Dew Point Humidity Pressure Visibility Wind Dir Wind Speed Gust Speed Precip Events Conditions
12:26 AM 46.4 °F 44.3 °F 46.4 °F 100% 30.02 in 0.5 mi South 4.6 mph - N/A Fog Fog
12:32 AM 46.4 °F 45.2 °F 46.4 °F 100% 30.02 in 0.2 mi South 3.5 mph - N/A Fog Fog
12:40 AM 46.4 °F - 46.4 °F 100% 30.02 in 0.2 mi SSE 2.3 mph - N/A Fog Fog
12:46 AM 46.4 °F - 46.4 °F 100% 30.02 in 0.2 mi East 2.3 mph - N/A Fog Fog
12:58 AM 45.7 °F - 45.7 °F 100% 30.02 in 0.2 mi Calm Calm - N/A Fog Fog
1:58 AM 45.0 °F - 45.0 °F 100% 30.00 in 0.2 mi Calm Calm - N/A Fog Fog
2:43 AM 44.6 °F - 44.6 °F 100% 30.00 in 0.2 mi NE 1.2 mph - N/A Fog Fog
2:58 AM 44.8 °F - 44.8 °F 100% 29.99 in 0.2 mi Calm Calm - N/A Fog Fog
3:58 AM 44.4 °F 42.0 °F 44.4 °F 100% 29.99 in 0.2 mi SE 4.6 mph - N/A Fog Fog
4:58 AM 44.1 °F 42.5 °F 44.1 °F 100% 30.03 in 0.2 mi SE 3.5 mph - N/A Fog Fog
5:58 AM 42.4 °F - 42.4 °F 100% 30.04 in 0.2 mi ESE 2.3 mph - N/A Fog Fog
6:58 AM 42.4 °F 39.6 °F 42.4 °F 100% 30.06 in 0.2 mi SE 4.6 mph - N/A Fog Fog
7:16 AM 42.8 °F - 42.8 °F 100% 30.06 in 0.2 mi East 1.2 mph - N/A Fog Fog
7:44 AM 42.8 °F - 42.8 °F 100% 30.06 in 1.0 mi Calm Calm - N/A   Overcast
7:58 AM 43.7 °F 41.1 °F 43.7 °F 100% 30.07 in 0.8 mi ESE 4.6 mph - N/A   Overcast
8:15 AM 42.8 °F 41.1 °F 42.8 °F 100% 30.07 in 1.0 mi NE 3.5 mph - N/A   Overcast
8:59 AM 43.0 °F 40.3 °F 43.0 °F 100% 30.07 in 1.2 mi Variable 4.6 mph - N/A   Overcast
9:27 AM 44.6 °F - 44.6 °F 100% 30.04 in 2.5 mi Calm Calm - N/A   Overcast
9:58 AM 44.8 °F - 44.8 °F 100% 30.05 in 4.0 mi ENE 2.3 mph - N/A   Overcast
10:19 AM 46.4 °F - 46.4 °F 100% 30.04 in 5.0 mi Calm Calm - N/A   Haze
10:58 AM 48.4 °F - 48.4 °F 100% 30.05 in 6.0 mi Variable 2.3 mph - N/A   Haze
11:58 AM 54.1 °F - 54.1 °F 100% 30.01 in 6.0 mi Variable 3.5 mph - N/A   Haze
12:58 PM 59.2 °F - 55.9 °F 89% 29.99 in 10.0 mi WNW 5.8 mph - N/A   Clear
1:58 PM 61.0 °F - 53.8 °F 77% 29.98 in 6.0 mi Variable 2.3 mph - N/A   Haze
2:58 PM 61.3 °F - 49.8 °F 66% 29.96 in 7.0 mi NNW 6.9 mph - N/A   Partly Cloudy
3:58 PM 60.8 °F - 46.2 °F 59% 29.94 in 10.0 mi WNW 8.1 mph - N/A   Partly Cloudy
4:58 PM 58.5 °F - 46.8 °F 65% 29.93 in 10.0 mi WNW 5.8 mph - N/A   Clear
5:58 PM 54.1 °F - 46.0 °F 74% 29.94 in 10.0 mi Variable 4.6 mph - N/A   Clear
6:58 PM 50.2 °F - 45.7 °F 85% 29.96 in 10.0 mi ESE 9.2 mph - N/A   Clear
7:58 PM 46.8 °F - 45.5 °F 95% 29.98 in 10.0 mi ESE 4.6 mph - N/A   Clear
8:48 PM 46.4 °F 42.4 °F 46.4 °F 100% 29.98 in 10.0 mi SE 8.1 mph - N/A   Partly Cloudy
8:58 PM 45.3 °F 41.1 °F 45.3 °F 100% 30.00 in 10.0 mi SSE 8.1 mph - N/A   Partly Cloudy
9:17 PM 44.6 °F 40.2 °F 44.6 °F 100% 29.98 in 10.0 mi SSE 8.1 mph - N/A   Mostly Cloudy
9:58 PM 46.8 °F - 46.8 °F 100% 30.00 in 10.0 mi SSE 6.9 mph - N/A   Overcast
10:58 PM 46.9 °F - 46.9 °F 100% 29.99 in 10.0 mi South 6.9 mph - N/A   Overcast
11:58 PM 46.9 °F - 46.9 °F 100% 29.97 in 9.0 mi South 6.9 mph - N/A   Overcast